Binhai current weather conditions

sailwx.info

Wind from 300 at 5 knots

Air temperature -1.0° C
Visibility: greater than 5.4 NM
Dewpoint -18.0° C

Last reported at 2017-Nov-22 20:00 UTC.
Time now 2017-Nov-22 20:38 UTC

Location: N 39°07' E 117°21'.
View on Google Maps.

See reports from other nearby stations

  
Tides and Currents Weather Stations Pressure Air Temp Water Temp Dewpoint Dewpoint Depression Visibility Wind Speed Wind Dir Waves Ship Positions
date/time (UTC)wind fromknots sea level pressurealtimeterstation pressurevisibilityair tempwater tempwave heightnotes
2017-Nov-22 20:00 300 5 5.4-1.0
2017-Nov-22 19:30 360 7 5.4-2.0
2017-Nov-22 19:00 330 9 5.4-0.0
2017-Nov-22 18:30 330 7 5.4-0.0
2017-Nov-22 18:00 330 9 5.4 1.0
2017-Nov-22 17:30 330 7 5.4 1.0
2017-Nov-22 17:00 340 7 5.4-0.0
2017-Nov-22 16:30 340 11 5.4 1.0
2017-Nov-22 16:00 340 11 5.4 2.0
2017-Nov-22 15:30 330 9 5.4 2.0
2017-Nov-22 15:00 340 9 5.4 1.0
2017-Nov-22 14:30 330 7 5.4 1.0
2017-Nov-22 14:00 340 9 5.4 1.0
2017-Nov-22 13:30 350 7 5.4-0.0
2017-Nov-22 13:00 350 7 5.4 1.0
2017-Nov-22 12:30 340 11 5.4 3.0
2017-Nov-22 12:00 330 15 5.4 4.0
2017-Nov-22 11:30 340 13 5.4 3.0
2017-Nov-22 11:00 330 11 5.4 4.0
2017-Nov-22 10:30 330 9 5.4 4.0
2017-Nov-22 10:00 340 9 5.4 3.0
2017-Nov-22 09:30 340 9 5.4 3.0
2017-Nov-22 09:00 340 9 5.4 4.0
2017-Nov-22 08:30 330 9 5.4 6.0
2017-Nov-22 08:00 330 7 5.4 7.0
2017-Nov-22 07:30 330 9 5.4 8.0
2017-Nov-22 07:00 320 9 5.4 7.0
2017-Nov-22 06:30 330 9 5.4 8.0
2017-Nov-22 06:00 340 13 5.4 8.0
2017-Nov-22 05:30 350 17 5.4 8.0
2017-Nov-22 05:00 330 15 5.4 9.0
2017-Nov-22 04:30 330 13 5.4 8.0
2017-Nov-22 04:00 350 11 5.4 8.0
2017-Nov-22 03:30 360 9 5.4 7.0
2017-Nov-22 03:00 360 9 5.4 7.0
2017-Nov-22 02:30 340 9 5.4 6.0
2017-Nov-22 02:00 350 7 5.4 6.0
2017-Nov-22 01:30 330 7 5.4 5.0
2017-Nov-22 01:00 340 5 5.4 4.0
2017-Nov-22 00:30 330 5 5.4 3.0
2017-Nov-22 00:00 330 5 5.4 1.0
2017-Nov-21 23:30 340 5 5.4-1.0
2017-Nov-21 23:00 350 7 5.4-1.0
2017-Nov-21 22:30 330 7 5.4 2.0
2017-Nov-21 22:00 330 7 5.4-0.0
2017-Nov-21 21:30 320 5 5.4 2.0
2017-Nov-21 21:00 310 5 5.4 1.0
2017-Nov-21 20:30 320 7 5.4 2.0
2017-Nov-21 20:00 330 9 5.4 2.0
2017-Nov-21 19:30 330 9 5.4 3.0
2017-Nov-21 19:00 330 9 5.4 3.0
2017-Nov-21 18:30 330 11 5.4 3.0
2017-Nov-21 18:00 340 11 5.4 2.0
2017-Nov-21 17:30 330 13 5.4 4.0
2017-Nov-21 17:00 340 15 5.4 3.0
2017-Nov-21 16:30 340 13 5.4 4.0
2017-Nov-21 16:00 340 15 5.4 5.0
2017-Nov-21 15:30 340 15 5.4 5.0
2017-Nov-21 15:00 340 13 5.4 6.0
2017-Nov-21 14:30 330 13 2.7 6.0 Haze.
2017-Nov-21 14:00 320 9 1.6 6.0 Haze.
2017-Nov-21 13:30 300 5 1.3 6.0 Haze.
2017-Nov-21 13:00 1.1 5.0 Haze.
2017-Nov-21 12:30 300 5 1.1 5.0 Haze.
2017-Nov-21 12:00 1.1 5.0 Haze.
2017-Nov-21 11:30 280 3 1.1 6.0 Haze.
2017-Nov-21 11:00 250 3 1.1 6.0 Haze.
2017-Nov-21 10:30 240 5 1.1 6.0 Haze.
2017-Nov-21 10:00 240 5 1.1 6.0 Haze.
2017-Nov-21 09:30 260 3 1.3 6.0 Haze.
2017-Nov-21 09:00 260 5 1.5 7.0 Haze.
2017-Nov-21 08:30 240 3 1.5 7.0 Haze.
2017-Nov-21 08:00 240 3 1.6 8.0 Haze.
2017-Nov-21 07:30 260 3 1.6 8.0 Haze.
2017-Nov-21 07:00 250 5 1.6 8.0 Haze.
2017-Nov-21 06:30 260 5 1.5 8.0 Haze.
2017-Nov-21 06:00 290 3 1.3 8.0 Haze.
2017-Nov-21 05:30 270 5 1.3 7.0 Haze.
2017-Nov-21 05:00 230 5 1.1 7.0 Haze.
2017-Nov-21 04:30 260 5 1.1 6.0 Haze.
2017-Nov-21 04:00 250 5 1.2 5.0 Haze.
2017-Nov-21 03:30 230 5 1.2 5.0 Haze.
2017-Nov-21 03:00 250 7 1.2 4.0 Haze.
2017-Nov-21 02:30 250 9 1.2 4.0 Haze.
2017-Nov-21 02:00 220 5 1.3 3.0 Haze.
2017-Nov-21 01:30 220 5 1.3 3.0 Haze.
2017-Nov-21 01:00 220 5 1.3 2.0 Haze.
2017-Nov-21 00:30 210 5 1.1 1.0 Haze.
2017-Nov-21 00:00 200 5 1.1-0.0 Haze.
2017-Nov-20 23:30 190 3 1.3-0.0 Haze.
2017-Nov-20 23:00 200 5 1.3-0.0 Haze.
2017-Nov-20 22:30 180 3 1.3-1.0 Haze.
2017-Nov-20 22:00 170 3 1.5-1.0 Haze.
2017-Nov-20 21:30 190 5 1.6-0.0 Haze.
2017-Nov-20 21:00 180 1 1.6-1.0 Haze.
2017-Nov-20 20:30 180 5 1.6-1.0 Haze.
2017-Nov-20 20:00 180 3 1.9-1.0 Haze.